Regional Weather Roundup
Issued by NWS

Home | Current Version | Previous Version | Text Only | Print | Product List | Glossary On
Versions: 1 2 3 4 5 6 7 8 9 10 11 12 13 14 15 16 17 18 19 20 21 22 23 24 25 26 27 28 29 30 31 32 33 34 35 36 37 38 39 40 41 42 43 44 45 46 47 48 49 50
000
ASUS44 KFWD 260810
RWRTX
NORTH TEXAS HOURLY WEATHER ROUNDUP
NATIONAL WEATHER SERVICE FORT WORTH TX
300 AM CDT MON SEP 26 2016

NOTE: "FAIR" INDICATES FEW OR NO CLOUDS BELOW 12,000 FEET WITH NO
SIGNIFICANT WEATHER AND/OR OBSTRUCTIONS TO VISIBILITY.

TXZ118-119-260900-
DALLAS/FORT WORTH METROPLEX

CITY           SKY/WX    TMP DP  RH WIND       PRES   REMARKS
DFW AIRPORT    CLOUDY    70  63  78 N16       30.11R
DALLAS LOVE    CLOUDY    71  66  84 N9        30.11R
FTW MEACHAM    CLOUDY    68  63  84 N18G24    30.12R
DAL-EXECUTIVE  CLOUDY    71  67  87 N9        30.10R
FTW-ALLIANCE   CLOUDY    65  61  87 N16G24    30.13R
FTW-NAS-JRB    CLOUDY    68  63  84 N16       30.13R
FTW-SPINKS     LGT RAIN  67  64  91 N13       30.13R
ARLINGTON      CLOUDY    70  66  87 NW14      30.11R
GRAND PRAIRIE  CLOUDY    70  66  88 N16       30.12S
ADDISON        CLOUDY    69  68  95 N12       30.13R
MESQUITE       CLOUDY    70  68  95 N9        30.10R
LANCASTER      CLOUDY    72  67  84 N9        30.11R
$$

TXZ091>094-102>105-117-120-121-131>134-260900-
NORTH CENTRAL TEXAS

CITY           SKY/WX    TMP DP  RH WIND       PRES   REMARKS
SHRMAN/DENISON LGT RAIN  65  64  97 N8G16     30.14S
GAINESVILLE    RAIN      61  57  88 N16G22    30.17S
BOWIE          LGT RAIN  64  58  80 N8        30.18S
BRIDGEPORT     DRIZZLE   63  62  97 N10       30.18S
DECATUR        LGT RAIN  61  60  96 N9        30.16S
DENTON         CLOUDY    64  60  87 N14G20    30.13R
MCKINNEY       CLOUDY    68  65  90 N12       30.11R
GREENVILLE     CLOUDY    68  64  88 N12G20    30.09S
ROCKWALL       CLOUDY    69  67  95 N6        30.09S
TERRELL        CLOUDY    70  66  87 N9        30.09R
WAXAHACHIE     CLOUDY    70  69  98 N9        30.12R
CLEBURNE       CLOUDY    68  68 100 N21G26    30.13R
GRANBURY       RAIN      68  65  89 N7        30.14F
$$

TXZ083>090-098>101-113>116-127>130-139>142-154-155-260900-
WESTERN NORTH TEXAS

CITY           SKY/WX    TMP DP  RH WIND       PRES   REMARKS
WICHITA FALLS  MOCLDY    63  55  75 N10       30.20S
WF-KICKAPOO    CLOUDY    65  54  67 N10G17    30.21S
VERNON         PTCLDY    64  53  66 N7        30.25R
ABILENE        CLOUDY    60  58  92 N13       30.21S
ABILENE-DYESS  CLOUDY    61  55  80 N9        30.20S
CISCO          CLOUDY    61  59  94 N18G25    30.19S
BRECKENRIDGE   LGT RAIN  62  61  97 N5        30.18F
GRAHAM         DRIZZLE   61  61 100 N7        30.17S
MINERAL WELLS  CLOUDY    65  60  84 N10       30.14S
STEPHENVILLE   CLOUDY    64  61  92 N9        30.16S
COMANCHE       CLOUDY    63  63 100 N12G17    30.15S
BROWNWOOD      LGT RAIN  63  63 100 N13G18    30.15S
COLEMAN        CLOUDY    62  59  88 N18       30.17S
$$

TXZ143>147-156>162-174-175-260900-
CENTRAL TEXAS

CITY           SKY/WX    TMP DP  RH WIND       PRES   REMARKS
WACO           CLOUDY    74  73  97 NE7       30.07F
WACO-MCGREGOR  CLOUDY    74  72  93 NE9       30.07F
HILLSBORO      CLOUDY    72  69  90 N8        30.10S
CORSICANA      LGT RAIN  73  70  90 N8        30.08F
MEXIA          CLOUDY    72  71  98 NW7       30.06S
HEARNE         CLOUDY    72  72  99 CALM      30.05F
CAMERON        CLOUDY    73  72  97 NW5       30.06F
TEMPLE         CLOUDY    73  72  96 NE3       30.07F
KILLEEN        CLOUDY    72  71  96 E9        30.06F
KILLEEN-SKYLRK CLOUDY    73  72  96 NE7       30.07F
FORT HOOD      CLOUDY    72  70  94 E9        30.05S
GATESVILLE     CLOUDY    73  73 100 NE9       30.10S
HAMILTON       DRIZZLE   67  67 100 N13G21    30.12S
LAMPASAS       CLOUDY    73  72  97 E5        30.07F
$$

TXZ095>097-106>112-122>126-135>138-148>153-164>167-260900-
EAST TEXAS

CITY           SKY/WX    TMP DP  RH WIND       PRES   REMARKS
PARIS          PTCLDY    70  64  83 N13G21    30.08R
SULPHUR SPRNGS CLOUDY    71  67  88 N15       30.09S
MOUNT PLEASANT MOCLDY    74  69  82 N8        30.06S
GILMER         CLOUDY    73  70  92 NW7       30.04S
MINEOLA        CLOUDY    72  70  94 N3        30.06S
TYLER          CLOUDY    73  72  96 NW6       30.05S
LONGVIEW       CLOUDY    71  70  96 NW3       30.03R
MARSHALL       CLOUDY    70  67  90 CALM      30.05S
ATHENS         CLOUDY    70  70 100 CALM      30.05S
PALESTINE      CLOUDY    70  70 100 CALM      30.07S FOG
JACKSONVILLE   CLOUDY    71  71 100 W3        30.07F
HENDERSON      CLOUDY    70  70 100 CALM      30.06S
CENTER         CLOUDY    73  71  95 CALM      30.05R
NACOGDOCHES    CLOUDY    72  70  94 CALM      30.03S
LUFKIN         FOG       70  70 100 NW3       30.04S VSB 1/2
$$

SUPPLEMENTAL OBSERVATIONS (CENTRAL)

CITY           SKY/WX    TMP DP  RH WIND       PRES   REMARKS
CADDO GRASSLND   N/A     66  61  82 N5G14       N/A
PAT MAYSE LAKE   N/A     66  64  94 NW10        N/A
MCGREGOR         N/A     73  72  94 NE9         N/A
TEMPLE           N/A     72  68  88 NE5         N/A
$$

SUPPLEMENTAL OBSERVATIONS (WEST)

CITY           SKY/WX    TMP DP  RH WIND       PRES   REMARKS
MILLERS CREEK    N/A     61  59  94 N6          N/A
POSSUM KINGDOM   N/A     61  55  82 N7G17       N/A
LBJ GRASSLAND    N/A    N/A N/A N/A N7G16       N/A
GRANBURY         N/A     66  61  82 N9          N/A
HAMBY            N/A     61  57  88 N7          N/A
$$

SUPPLEMENTAL OBSERVATIONS (EAST)

CITY           SKY/WX    TMP DP  RH WIND       PRES   REMARKS
GILMER           N/A     73  68  83 N3          N/A
HENDERSON        N/A     70  68  94 SW2         N/A
LUFKIN           N/A     72  70  94 MISG        N/A
N SABINE NF      N/A     70  68  94 MISG        N/A
$$

SUPPLEMENTAL OBSERVATIONS ARE A COLLECTION OF AUTOMATED INSTRUMENTS
THAT ARE MAINTAINED BY A VARIETY OF FEDERAL AND STATE AGENCIES.
CERTAIN ELEMENTS...SUCH AS HUMIDITY VALUES AND SUSTAINED WIND
SPEEDS...MAY BE APPROXIMATED.





USA.gov is the U.S. government's official web portal to all federal, state and local government web resources and services.